Terminal Aerodrome Forecast
Issued by NWS

Home | Current Version | Previous Version | Text Only | Print | Product List | Glossary On
Versions: 1 2 3 4 5 6 7 8 9 10 11 12 13 14 15 16 17 18 19 20 21 22 23 24 25 26 27 28 29 30 31 32 33 34 35 36 37 38 39 40 41 42 43 44 45 46 47 48 49 50
000
FTUS45 KVEF 031100
TAFLAS
TAF
KLAS 031120Z 0312/0412 VRB05KT P6SM SKC
     FM031600 VRB06KT P6SM FEW060 SCT080
     FM031900 24009G15KT P6SM VCSH SCT060 BKN080
      TEMPO 0321/0324 P6SM SCT050 BKN060
     FM040100 29009KT P6SM SCT060
     FM040300 01012KT P6SM SKC=

USA.gov is the U.S. government's official web portal to all federal, state and local government web resources and services.